[Iaude] MPEC F70: 2024 FG2 [a=1.03,e=0.65,i=11.9,H=22.1]

mpec at cfa.harvard.edu mpec at cfa.harvard.edu
Fri Mar 22 06:58:11 EDT 2024


M.P.E.C. 2024-F70                                Issued 2024 March 22, 10:56 UT

     The Minor Planet Electronic Circulars contain information on unusual
         minor planets, routine data on comets and natural satellites,
         and occasional editorial announcements.  They are published
    on behalf of Division F of the International Astronomical Union by the
          Minor Planet Center, Smithsonian Astrophysical Observatory,
                          Cambridge, MA 02138, U.S.A.
			  
             Prepared using the Tamkin Foundation Computer Network

                              MPC at CFA.HARVARD.EDU
            URL https://www.minorplanetcenter.net/    ISSN 1523-6714

                                    2024 FG2                                    


Observations:
     K24F02G* C2024 03 18.48627014 48 58.008+28 37 31.14         21.61wXEF070F52
     K24F02G  C2024 03 18.49934614 48 58.705+28 38 26.28         21.50wXEF070F52
     K24F02G  C2024 03 18.51252714 48 59.411+28 39 22.04         21.69wXEF070F52
     K24F02G  C2024 03 18.52584814 49 00.136+28 40 18.50         21.81wXEF070F52
     K24F02G  C2024 03 18.62015314 49 05.136+28 46 54.82         21.48GVEF070F51
     K24F02G  C2024 03 18.62096814 49 05.173+28 46 58.33         21.60GVEF070F51
     K24F02G 1C2024 03 19.63476214 50 12.751+30 00 44.43         19.89GVEF070T12
     K24F02G 1C2024 03 19.63760214 50 12.936+30 00 57.04         19.68GVEF070T12
     K24F02G 1C2024 03 19.64019214 50 13.059+30 01 09.27         19.33GVEF070T12
     K24F02G KC2024 03 22.43896914 53 33.850+33 52 57.40         22.33GVEF070I52
     K24F02G KC2024 03 22.44017814 53 33.930+33 53 03.70         21.19GVEF070I52
     K24F02G KC2024 03 22.44138414 53 34.020+33 53 09.90         22.31GVEF070I52

Observer details:
F51 Pan-STARRS 1, Haleakala.  Observers J. Herman, T. Lowe, P. Minguez, A.
    Schultz, I. Smith.  Measurers K. Chambers, T. de Boer, J. Fairlamb, H.
    Gao, M. Huber, C.-C. Lin, E. Magnier, Y. Ramanjooloo, R. Wainscoat, R.
    Weryk, J. Herman, T. Lowe, P. Minguez, A. Schultz, I. Smith.  1.8-m
    Ritchey-Chretien + CCD.
F52 Pan-STARRS 2, Haleakala.  Observers J. Herman, T. Lowe, P. Minguez, A.
    Schultz, I. Smith.  Measurers K. Chambers, T. de Boer, J. Fairlamb, H.
    Gao, M. Huber, C.-C. Lin, E. Magnier, Y. Ramanjooloo, R. Wainscoat, R.
    Weryk, J. Herman, T. Lowe, P. Minguez, A. Schultz, I. Smith.  1.8-m
    Ritchey-Chretien + CCD.
I52 Steward Observatory, Mt. Lemmon Station.  Observer D. Rankin.  Measurers
    T. Beuden, V. F. Carvajal, D. Fay, J. B. Fazekas, D. C. Fuls, A. R. Gibbs,
    A. D. Grauer, H. Groeller, J. K. Hogan, R. A. Kowalski, S. M. Larson, G.
    J. Leonard, D. Rankin, R. L. Seaman, F. C. Shelly, K. W. Wierzchos, D.
    Rankin.  1.0-m prime focus + CCD.
T12 University of Hawaii 88-inch telescope, Maunakea.  Observer J. Fairlamb.
    Measurers R. Weryk, J. Fairlamb, Y. Ramanjooloo, R. Wainscoat, J.
    Fairlamb.  2.24-m f/10.1 reflector + CCD.

Orbital elements:
2024 FG2                                                 Earth MOID = 0.1129 AU
Epoch 2024 Mar. 31.0 TT = JDT 2460400.5                 MPC                     
M 301.35824              (2000.0)            P               Q                  
n   0.94931063     Peri.  267.43430     +0.79591516     +0.57996249             
a   1.0253304      Node    57.06058     -0.43982954     +0.75105705             
e   0.6473346      Incl.   11.94310     -0.41601568     +0.31552624             
P   1.04           H   22.11          G   0.15           U   9                  
Residuals in seconds of arc
240318 F52  0.1+  0.1-    240318 F51  0.0   0.0     240319 T12  0.1-  0.4+
240318 F52  0.0   0.2-    240318 F51  0.0   0.1+    240322 I52  0.1-  0.4+
240318 F52  0.1-  0.1-    240319 T12  0.2-  0.2-    240322 I52  0.0   0.1+
240318 F52  0.1+  0.2+    240319 T12  0.2+  0.3-    240322 I52  0.2+  0.3-

Ephemeris:
2024 FG2                 a,e,i = 1.03, 0.65, 12                  q = 0.3616
Date    TT    R. A. (2000) Decl.     Delta      r    Elong.  Phase     V
2024 02 21    14 20 11.7 +12 36 37   0.6309  1.4132   119.9    37.3    23.4
...
2024 03 07    14 36 56.2 +18 57 48   0.4355  1.3062   128.0    36.8    22.4
...
2024 03 15    14 45 14.2 +24 59 00   0.3402  1.2405   129.9    37.9    21.8
...
2024 03 21    14 51 48.5 +31 48 08   0.2744  1.1871   128.7    40.9    21.3
2024 03 22    14 53 01.1 +33 13 29   0.2641  1.1778   128.1    41.7    21.2
2024 03 23    14 54 17.1 +34 45 00   0.2539  1.1685   127.4    42.6    21.1
...
2024 03 29    15 04 17.2 +46 41 29   0.1984  1.1100   119.7    51.4    20.7
...
2024 04 06    15 56 07.1 +73 22 39   0.1480  1.0257    95.6    76.2    20.7
...
2024 04 21    02 20 44.0 +42 48 20   0.1917  0.8473    31.4   141.8    25.3

A. U. Tomatic                (C) Copyright 2024 MPC           M.P.E.C. 2024-F70





More information about the Iaude mailing list